Dewpoint
69 69 69 70 70 69 68 69 69 69 67 67 67 68 67 69 70 67 68 69 68 66 67 67 67 67 64 67 69 68 67 66 63 64 68 71 68 70 70 70 68 66 66
69 69 68 68 69 69 68 69 68 69 68 67 68 66 62 60 69 69 67 68 67 67 65 61 67 68 68 68 68 68 69 68 64 61 67 67 68 70 69 68 68 68 65
69 69 68 68 68 68 68 68 68 69 68 66 64 67 64 59 66 69 68 68 68 69 67 67 68 67 68 68 68 66 69 69 68 67 66 68 69 70 70 71 70 67 66
69 69 68 69 68 68 68 67 67 68 70 68 65 62 69 69 69 69 70 69 69 69 69 69 69 68 69 68 67 68 68 68 68 67 68 68 68 68 69 67 67 66 63
68 68 67 65 67 68 68 68 68 69 69 69 68 69 69 69 69 69 69 69 68 68 69 68 69 69 69 69 68 68 68 68 69 68 68 68 68 67 66 67 67 68 64
67 67 67 66 67 68 67 66 65 68 68 69 68 68 68 68 68 68 68 68 69 69 68 67 69 70 69 69 68 68 69 69 68 68 68 67 67 68 69 67 66 65 64
68 67 68 68 67 67 67 66 65 64 68 67 68 69 68 69 68 66 66 68 68 67 68 68 69 69 68 69 70 68 67 67 68 68 68 68 68 69 69 68 67 67 66
66 67 68 66 66 67 66 65 65 65 67 67 68 68 68 67 66 66 66 66 67 68 68 68 68 68 69 69 69 69 69 68 68 69 69 65 63 62 65 66 66 68 64
64 65 66 66 64 64 63 63 62 64 68 67 68 69 68 64 63 64 66 68 68 68 68 68 68 69 67 67 68 68 68 61 59 60 59 59 58 59 61 65 64 64 65
63 64 66 66 65 63 64 63 65 67 69 68 67 66 64 62 62 63 64 66 68 68 68 66 64 66 63 64 67 68 67 65 60 59 60 59 59 59 58 59 60 62 61
65 66 65 65 65 66 65 65 66 67 67 65 63 62 60 61 59 58 60 64 65 66 68 64 60 61 60 61 63 65 66 65 62 61 58 57 56 56 57 58 59 60 58
67 66 66 67 66 66 66 66 66 66 65 64 62 60 60 58 57 57 59 60 61 65 63 61 59 59 60 61 61 62 63 62 60 57 56 54 54 54 55 56 57 58 57
64 63 64 64 64 65 64 64 64 64 63 62 61 60 59 59 58 57 57 59 61 60 59 57 57 57 57 58 59 59 59 58 57 56 55 53 53 54 54 53 55 57 57
62 62 62 63 62 63 63 63 62 62 61 61 60 60 59 59 58 59 58 58 58 58 58 58 58 58 59 59 58 58 58 58 56 54 52 52 52 52 51 52 51 53 54
62 62 60 60 57 55 53 53 56 53 54 60 60 59 60 58 56 56 57 59 59 58 59 59 58 57 57 56 56 56 55 55 53 53 52 50 50 50 51 52 52 51 50
62 63 62 61 58 56 56 55 51 50 51 52 55 56 54 54 54 55 56 56 57 57 58 57 57 57 56 56 55 55 56 55 54 53 51 50 50 50 50 50 52 51 50
62 61 61 62 59 58 57 56 55 53 51 51 53 54 56 54 54 55 55 55 55 57 59 59 58 57 57 57 57 56 56 55 54 53 52 51 51 50 50 50 49 50 50
60 60 60 59 59 59 59 59 57 56 55 54 52 54 53 53 53 53 52 54 57 57 59 58 58 57 57 57 57 56 55 55 53 53 52 52 52 50 47 47 48 48 48
60 59 60 59 59 58 59 59 58 58 58 55 53 52 51 50 50 50 50 54 56 58 58 57 58 58 57 56 55 55 55 54 54 54 53 52 49 48 47 48 48 45 42
61 60 60 60 58 58 59 58 58 58 58 56 54 54 53 52 52 53 53 54 55 58 58 57 58 57 57 55 53 52 52 52 52 51 51 49 49 49 46 44 43 40 38
60 60 59 59 58 58 58 57 57 57 57 57 57 55 52 52 53 54 55 56 56 57 56 57 57 57 57 55 55 54 53 51 50 49 50 50 47 45 43 40 37 41 40
60 59 58 58 58 57 56 56 56 56 56 56 52 50 52 52 51 50 53 51 51 50 48 49 50 49 49 49 51 50 50 48 47 48 46 43 43 39 38 40 38 38 38
58 57 55 56 57 56 50 49 50 49 49 48 45 41 41 39 41 45 49 48 50 50 50 49 49 50 50 49 46 44 44 44 44 40 40 39 42 41 41 38 39 37 38
50 51 46 50 50 47 45 42 45 43 43 43 39 35 33 34 39 43 41 45 49 49 50 48 48 49 47 47 46 45 43 44 41 40 43 41 40 37 36 38 38 39 38
48 49 47 49 47 45 45 45 46 44 42 42 41 41 41 41 44 44 44 46 46 46 49 48 47 47 50 47 47 43 42 42 42 41 41 44 43 40 40 41 42 42 40
45 44 46 47 46 45 43 42 43 44 45 43 41 43 45 47 46 47 43 45 47 47 47 48 48 48 48 49 45 41 39 41 41 45 45 46 45 44 44 42 43 41 42
Wind_Speed
27 25 24 21 19 18 19 14 14 13 14 14 12 9 7 5 9 8 9 6 5 6 7 6 6 3 7 5 5 6 4 1 2 4 3 6 9 12 14 10 13 14 13
25 26 24 22 21 20 20 18 16 15 17 16 14 12 11 7 6 12 11 11 7 9 12 7 7 8 6 6 4 5 3 4 3 6 2 3 4 11 11 12 10 7 10
26 24 24 22 21 21 20 19 20 15 19 18 18 17 15 13 13 12 13 13 12 12 12 12 8 8 9 7 5 5 3 2 3 4 7 3 1 2 4 8 11 7 6
26 24 23 20 22 20 19 18 19 18 17 17 16 19 18 18 16 15 13 15 14 13 13 13 11 10 11 10 9 6 6 7 5 6 7 8 7 5 3 5 5 5 10
19 18 14 11 12 15 15 18 19 20 21 19 18 16 17 15 14 16 15 17 17 16 14 13 10 9 12 12 10 12 11 10 9 9 9 7 9 7 7 2 5 9 6
6 13 15 20 12 10 7 11 10 16 22 20 19 19 18 15 17 19 19 17 18 18 18 16 13 12 10 13 18 18 12 11 11 9 11 12 13 9 4 5 4 5 5
4 11 14 16 10 8 8 15 18 22 22 19 18 17 17 17 15 10 8 14 19 20 18 15 14 10 11 10 10 11 9 11 15 11 14 12 10 4 3 5 6 5 5
12 12 10 13 11 13 6 14 20 30 25 18 18 20 19 6 3 5 7 10 11 16 18 18 17 14 14 12 10 8 8 4 1 4 5 0 1 2 0 2 1 4 9
11 11 10 12 14 16 8 9 25 36 17 15 10 13 12 8 8 6 2 6 11 14 11 10 10 11 4 3 8 9 7 6 11 15 17 15 13 11 7 2 2 3 5
9 8 6 8 10 12 15 12 18 20 8 15 14 14 14 11 7 3 1 2 9 13 7 6 8 5 4 4 1 2 6 7 13 13 11 10 9 11 12 9 2 2 2
5 5 4 6 6 5 10 14 13 7 13 15 12 11 10 7 6 6 6 3 3 2 7 8 7 7 7 5 4 3 1 8 12 12 12 8 8 9 9 9 9 4 2
12 14 10 9 9 8 5 8 5 11 12 8 9 8 8 7 10 10 4 4 2 4 7 6 6 8 10 8 8 9 10 11 11 11 9 7 8 8 9 10 10 10 10
13 9 8 9 8 7 9 9 9 9 7 6 6 5 4 4 3 10 11 5 7 7 7 13 14 16 15 12 9 9 8 9 11 9 8 6 6 6 5 7 8 9 10
10 9 6 8 10 10 11 8 9 8 7 6 6 6 5 3 4 6 8 11 13 13 10 10 13 15 13 11 11 11 9 7 9 11 10 9 6 4 5 4 6 4 6
9 9 9 9 11 12 12 9 9 8 4 6 6 6 5 6 3 4 6 7 9 11 10 8 9 10 10 10 10 10 10 9 9 10 9 7 6 5 3 2 2 3 5
5 6 9 9 9 9 10 11 14 9 9 9 5 9 9 12 9 9 11 13 11 5 7 9 9 9 9 8 8 8 8 8 7 8 8 7 6 5 4 1 1 1 0
4 4 4 10 11 11 8 8 8 6 10 11 9 9 10 12 13 12 8 4 3 2 6 8 8 8 7 6 7 7 5 7 8 7 7 7 5 4 3 2 4 5 4
7 5 7 10 9 9 10 10 10 9 7 4 4 6 10 9 8 7 4 2 4 2 6 8 8 9 8 7 8 9 8 7 6 6 6 6 5 5 4 4 6 5 5
9 8 6 7 8 8 6 5 11 9 10 8 6 3 6 6 5 3 3 4 2 6 7 8 8 8 8 9 9 8 8 8 7 8 7 7 7 6 7 10 11 6 2
7 9 8 8 9 8 9 8 8 8 11 9 8 8 10 6 6 8 10 9 8 7 9 9 9 10 11 11 10 10 10 9 9 9 8 10 11 10 7 6 6 5 4
11 11 9 7 9 10 9 9 10 11 12 12 12 14 16 12 10 10 11 11 12 11 9 9 10 12 12 13 12 13 11 11 12 10 8 10 8 5 3 2 2 5 6
11 13 12 10 11 8 10 11 13 14 13 13 12 12 18 13 10 13 14 10 10 12 14 13 12 12 11 11 10 10 10 14 12 9 9 6 6 4 3 5 1 1 1
14 14 16 15 12 10 9 7 11 12 17 20 17 13 12 12 9 6 12 8 10 11 12 10 9 10 11 13 10 8 6 9 15 10 7 6 6 4 2 2 3 1 3
3 12 12 16 17 10 6 8 6 7 7 18 16 16 16 16 13 13 12 10 14 12 13 10 7 12 15 13 12 9 4 9 11 8 7 3 6 6 2 3 3 4 6
9 11 9 17 15 12 8 5 9 7 9 9 20 17 17 16 15 17 16 16 16 15 15 15 14 12 19 14 11 11 12 15 11 9 5 3 9 7 2 2 5 4 4
11 13 10 13 17 14 12 10 9 9 9 15 13 13 15 20 20 17 18 16 18 17 17 17 18 18 18 18 15 19 20 18 15 13 8 5 3 3 7 8 8 7 5
Wind_Direction
199 203 197 200 205 212 221 225 208 166 167 154 167 168 169 162 202 192 201 213 247 255 239 219 248 249 266 299 316 336 11 94 354 317 10 174 193 195 185 180 166 185 189
190 203 198 196 200 209 219 224 228 176 170 169 163 185 203 223 220 211 210 222 234 248 254 254 242 242 267 286 285 297 61 78 42 310 298 320 263 219 195 168 179 196 190
191 196 194 197 200 206 211 214 220 208 185 184 186 195 206 223 234 222 217 226 232 232 240 248 247 250 247 240 257 297 303 313 303 270 294 304 334 23 148 187 180 119 132
198 197 200 191 196 204 206 211 210 212 206 207 196 201 206 213 223 228 221 222 236 238 243 244 237 239 240 258 250 256 265 277 286 288 291 293 289 274 241 259 216 145 138
212 196 189 262 268 210 212 211 208 203 210 204 208 212 218 218 229 234 232 229 232 237 243 256 248 251 246 243 238 249 247 254 252 253 264 270 279 297 306 256 258 162 158
149 185 205 230 207 211 294 313 306 259 218 213 216 219 221 218 224 229 236 239 235 235 239 247 248 253 256 256 248 247 240 243 255 255 258 260 266 264 248 286 251 189 205
68 109 165 174 154 191 239 291 291 291 247 219 216 220 228 228 231 231 237 243 236 229 235 235 245 246 256 270 277 263 248 239 240 252 258 260 272 266 271 285 253 228 216
71 92 125 138 153 186 236 287 298 286 250 222 216 219 222 190 149 233 252 252 257 240 227 227 234 246 255 266 272 262 259 112 203 223 228 36 66 357 81 175 238 91 86
74 102 123 133 135 148 126 346 296 282 246 247 228 220 218 130 84 57 4 260 249 244 222 227 241 252 250 253 270 274 250 133 82 103 106 98 77 57 28 278 261 253 226
89 90 89 154 175 178 153 180 251 255 144 113 90 84 105 105 76 65 96 266 271 243 236 103 68 139 121 99 225 267 249 188 150 130 118 87 71 58 51 58 27 264 185
113 103 82 79 90 144 191 183 208 94 73 85 87 85 85 88 70 41 22 89 77 33 115 118 100 103 93 76 108 85 107 146 157 138 125 104 80 64 50 40 37 39 173
84 73 69 72 59 71 119 96 86 111 114 100 96 84 70 62 51 33 33 68 20 84 99 98 97 109 113 103 95 101 112 119 121 124 111 99 89 76 64 58 53 61 66
90 70 69 78 75 68 75 85 85 95 93 108 106 106 98 102 88 54 45 54 99 111 110 112 110 100 92 83 79 85 99 114 125 121 121 111 99 100 104 85 71 71 79
98 101 93 91 78 74 79 88 94 87 113 125 130 122 131 136 83 81 72 76 85 93 97 96 101 92 85 83 77 66 66 92 120 126 118 117 108 106 99 87 83 71 79
131 133 128 117 100 88 67 57 77 71 71 100 94 120 150 131 89 93 91 99 101 106 106 95 88 88 86 79 75 81 86 90 99 109 116 120 130 134 128 111 96 61 86
153 147 155 131 116 112 108 84 57 64 49 54 98 113 82 107 112 107 108 115 124 108 124 115 114 106 97 96 93 90 86 102 115 126 134 143 140 134 132 160 74 123 308
149 113 167 160 151 146 142 131 118 67 65 69 88 111 122 124 112 115 121 128 157 177 142 139 138 129 134 133 139 145 146 143 148 146 147 155 169 174 161 194 225 256 282
123 122 104 120 134 140 162 169 155 156 155 140 70 114 128 132 136 140 155 188 152 153 145 145 148 155 158 162 151 142 140 144 146 153 168 187 204 193 201 246 261 268 311
154 159 153 157 154 170 193 199 165 160 153 149 145 156 171 173 173 187 195 200 204 190 179 179 181 169 164 149 149 152 158 171 181 188 202 201 209 214 243 263 261 219 136
157 173 194 185 176 188 195 180 170 172 164 169 178 181 170 166 193 206 212 212 219 225 196 194 186 173 169 171 167 166 175 190 197 206 218 224 238 240 252 274 201 216 229
182 192 206 194 190 205 199 203 198 195 188 190 197 183 182 183 199 218 228 227 228 238 225 190 184 191 185 182 187 190 197 204 210 216 221 218 224 231 265 224 187 178 239
194 191 197 215 227 220 211 207 207 204 198 195 185 188 192 204 229 252 239 215 149 158 142 152 161 167 167 175 189 203 211 211 224 220 195 207 208 219 253 269 271 34 70
208 218 207 202 215 228 236 200 218 210 175 177 178 183 196 222 233 227 167 195 163 156 166 175 195 206 198 197 198 212 234 203 188 181 192 195 203 216 189 226 274 203 132
233 239 206 163 170 180 198 233 276 155 122 177 179 184 196 207 213 214 187 172 172 175 174 182 183 170 184 188 199 214 175 145 154 149 126 184 185 179 161 352 319 201 164
272 297 181 167 170 184 189 256 238 219 223 193 192 201 210 217 219 198 191 193 187 188 193 193 198 192 185 190 195 199 166 151 150 155 147 130 139 166 147 67 20 36 112
237 262 278 188 183 191 204 218 242 247 220 221 227 213 203 211 216 204 202 193 193 198 201 202 201 201 190 186 172 170 167 160 158 158 152 127 154 127 94 92 55 52 64